Regional Weather Roundup
Issued by NWS

Home | Current Version | Previous Version | Text Only | Print | Product List | Glossary Off
Versions: 1 2 3 4 5 6 7 8 9 10 11 12 13 14 15 16 17 18 19 20 21 22 23 24 25 26 27 28 29 30 31 32 33 34 35 36 37 38 39 40 41 42 43 44 45 46 47 48 49 50

000
ASUS43 KLOT 291403
RWRIL

ILLINOIS REGIONAL WEATHER ROUNDUP
NATIONAL WEATHER SERVICE CHICAGO/ROMEOVILLE IL
900 AM CDT FRI JUL 29 2016

NOTE: "FAIR" INDICATES FEW OR NO CLOUDS BELOW 12,000 FEET WITH NO
SIGNIFICANT WEATHER AND/OR OBSTRUCTIONS TO VISIBILITY.

* THESE STATIONS ARE NOT UNDER NWS QUALITY CONTROL. THEY ALSO MAY NOT
  REPORT WEATHER SUCH AS PRECIPITATION OR FOG.

ILZ001-002-007-009-015-016-024-291500-
NORTHWEST ILLINOIS

CITY           SKY/WX    TMP DP  RH WIND       PRES   REMARKS
MOLINE         CLOUDY    75  68  78 W3        29.94R
STERLING*      CLOUDY    70  68  93 E7        29.96R
SAVANNA*       CLOUDY    69  65  88 E6        29.95S
$$

ILZ003-004-008-010-011-017-018-291500-
NORTH CENTRAL ILLINOIS

CITY           SKY/WX    TMP DP  RH WIND       PRES   REMARKS
ROCKFORD       CLOUDY    73  66  78 N8        29.96R
FREEPORT*      CLOUDY    68  65  91 NE3       29.98R
ROCHELLE*      CLOUDY    70  69  96 E7        29.95S FOG
DE KALB*       CLOUDY    74  70  89 E7        29.96S
$$

ILZ005-006-012>014-019>023-291500-
NORTHEAST ILLINOIS

CITY           SKY/WX    TMP DP  RH WIND       PRES   REMARKS
CHICAGO-OHARE  PTSUNNY   77  69  76 NE7       29.93S
CHICAGO-MIDWAY PTSUNNY   79  69  71 NE3       29.93R HX  81
AURORA         CLOUDY    75  69  81 E5        29.95R
LANSING*       MOSUNNY   77  67  72 CALM      29.93R
WAUKEGAN       CLOUDY    74  68  81 NE8       29.95R
DUPAGE AIRPORT PTSUNNY   76  69  79 NE7       29.94R
KANKAKEE*      PTSUNNY   76  69  80 E5        29.94R
WHEELING       CLOUDY    75  69  81 E5        29.95R
MORRIS*        CLOUDY    73  69  89 CALM      29.93R FOG
NORTHERLY ISL    N/A     77  69  76 NE6         N/A
$$

LMZ740>746-291500-
SOUTHERN LAKE MICHIGAN

STATION/POSITION SKY/WX   TEMP    WIND        PRES    VSBY  WAVE
                          AIR SEA DIR/SP/G                  HT/PER
                          (F)     (DEG/KT/KT) (MB)    (MI)  (FT/S)
SOUTHERN BUOY              71 75   90/ 17/ 21 1013.1          3/ 5
WILMETTE HARBOR            74 73  100/  8/ 10   N/A           2/ 6
HARRISON CRIB              75      80/  9/  9   N/A
BURNHAM HARBOR             75      60/  7/  7   N/A
CALUMET HARBOR             75      30/  5/  7 1012.7R
BURNS HARBOR               73      50/  4/  6 1013.9S
MICHIGAN CITY              71      40/  3/  4   N/A
MICHIGAN CITY 6N           72 77   70/  4/  6   N/A           1/ 6
ST. JOSEPH                 71 76  110/  6/  8 1013.4S         2
$$

ILZ025>027-034>036-040-047-049-050-058-095>099-291500-
WEST-CENTRAL ILLINOIS

CITY           SKY/WX    TMP DP  RH WIND       PRES   REMARKS
QUINCY         CLOUDY    70  70 100 W3        29.97S
GALESBURG*     CLOUDY    69  68  97 CALM      29.96R
MACOMB*        CLOUDY    67  67 100 NW5       29.99R FOG
JACKSONVILLE*  CLOUDY    70  68  93 CALM      29.97R
PITTSFIELD*    PTSUNNY   72  69  90 W3        29.99S
$$

ILZ028>032-037-038-041>044-048-051>054-059>061-291500-
CENTRAL ILLINOIS

CITY           SKY/WX    TMP DP  RH WIND       PRES   REMARKS
BLOOMINGTON    PTSUNNY   74  70  87 NW3       29.95S
DECATUR        CLOUDY    78  69  73 CALM      29.94S HX  80
PEORIA         CLOUDY    71  70  96 CALM      29.94R FOG
LACON*         CLOUDY    70  69  97 CALM      29.93S FOG
LINCOLN*       PTSUNNY   74  71  92 CALM      29.94R
SPRINGFIELD    CLOUDY    72  69  90 W5        29.96R
TAYLORVILLE    CLOUDY    73  70  91 MISG      29.96R
$$

ILZ033-039-045-046-055>057-062-063-291500-
EAST-CENTRAL ILLINOIS

CITY           SKY/WX    TMP DP  RH WIND       PRES   REMARKS
CHAMPAIGN      MOSUNNY   74  71  91 VRB3      29.94S
MATTOON        SUNNY     76  69  79 W3        29.94R
PARIS*         FOG       72  72 100 CALM      29.95R VSB 1/2
$$

ILZ079-100>102-291500-
SOUTHWEST ILLINOIS

CITY           SKY/WX    TMP DP  RH WIND       PRES   REMARKS
ALTON          PTSUNNY   75  68  78 NE6       29.97R
CAHOKIA*       MOSUNNY   80  67  64 N5        29.96S HX  82
SPARTA*        SUNNY     77  71  82 NE3       29.97R
$$

ILZ064>066-069>071-074>076-080>082-084>086-088>090-092>094-291500-
SOUTH-CENTRAL ILLINOIS

CITY           SKY/WX    TMP DP  RH WIND       PRES   REMARKS
CARBONDALE     MOSUNNY   79  73  82 VRB5      29.95R HX  82
CAIRO*         PTSUNNY   75  72  89 SW8       29.96R
EFFINGHAM*     SUNNY     77  75  92 CALM      29.96R
MARION         PTSUNNY   77  75  94 SW6       29.95R
MT. VERNON     CLOUDY    75  70  83 MISG      29.95R
CENTRALIA*     SUNNY     78  73  86 CALM      29.95R HX  80
SALEM*         SUNNY     78  72  81 N5        29.95R HX  81
METROPOLIS*    PTSUNNY   79  73  83 SW7       29.96S HX  82
$$

ILZ067-068-072-073-078-083-087-091-291500-
SOUTHEAST ILLINOIS

CITY           SKY/WX    TMP DP  RH WIND       PRES   REMARKS
LAWRENCEVILLE  CLOUDY    75  72  90 CALM      29.94S
FLORA*         CLOUDY    75  73  91 CALM      29.95R
FAIRFIELD*     CLOUDY    74  73  96 CALM      29.93S
HARRISBURG*    CLOUDY    77  74  91 SW3       29.94S
ROBINSON*      SUNNY     73  71  93 CALM      29.94S
CARMI*         CLOUDY    76  73  92 SW3       29.94S
$$

ABBREVIATIONS USED IN REMARKS
   TC - TEMPERATURE IN CELSIUS
  WCI - WIND CHILL INDEX
   HX - HEAT INDEX
  VSB - VISIBILITY
$$




USA.gov is the U.S. government's official web portal to all federal, state and local government web resources and services.